STARLINK-34658

Last updated on Sat Aug 16 2025 00:02:05 GMT+0000 (Coordinated Universal Time)

1 64802U 25150N 25227.58336806 -.01728983 00000+0 -38598-1 0 9993 2 64802 69.9998 315.3077 0003827 274.3180 138.9298 15.46758743 6087
UTC large
Height (km)
Speed (km/s)
/
Latitude / Longitude
Inclination (degrees)
Orbital Period (minutes)
Azimuth
Elevation
Range (km)
Doppler Factor

Next 0 passes for location: London (51.5072 / 0.1276)

Sorry there are no passes over London.